| time (UTC) | temp C | wind direction | speed KPH | gust KPH | rain 1hr cm | rain 24hr cm | rain mn cm | humidity % | barometer mb |
| 20260509005907 | 19 | 223 | 1.6 | 8.0 | 0.00 | 0.00 | 0.00 | 30 | 1003.6 |
| 20260509005406 | 20 | 216 | 16.1 | 24.1 | 0.00 | 0.00 | 0.00 | 29 | 1003.7 |
| 20260509004905 | 20 | 234 | 4.8 | 14.5 | 0.00 | 0.00 | 0.00 | 29 | 1003.4 |
| 20260509004402 | 20 | 173 | 3.2 | 20.9 | 0.00 | 0.00 | 0.00 | 29 | 1003.8 |
| 20260509003900 | 20 | 246 | 8.0 | 17.7 | 0.00 | 0.00 | 0.00 | 29 | 1003.4 |
| 20260509003358 | 20 | 167 | 4.8 | 24.1 | 0.00 | 0.00 | 0.00 | 29 | 1003.7 |
| 20260509002854 | 20 | 231 | 4.8 | 17.7 | 0.00 | 0.00 | 0.00 | 29 | 1003.3 |
| 20260509002352 | 20 | 201 | 3.2 | 12.9 | 0.00 | 0.00 | 0.00 | 30 | 1003.5 |
| 20260509001850 | 20 | 179 | 8.0 | 16.1 | 0.00 | 0.00 | 0.00 | 29 | 1003.3 |
| 20260509001345 | 20 | 226 | 8.0 | 12.9 | 0.00 | 0.00 | 0.00 | 28 | 1003.8 |
| 20260509000843 | 20 | 223 | 9.7 | 20.9 | 0.00 | 0.00 | 0.00 | 29 | 1003.5 |
| 20260509000341 | 20 | 216 | 4.8 | 8.0 | 0.00 | 0.00 | 0.00 | 30 | 1003.5 |
| 20260508235836 | 20 | 232 | 6.4 | 9.7 | 0.00 | 0.00 | 0.00 | 30 | 1003.7 |
| 20260508235334 | 20 | 104 | 8.0 | 24.1 | 0.00 | 0.00 | 0.00 | 29 | 1003.3 |
| 20260508234831 | 20 | 230 | 6.4 | 17.7 | 0.00 | 0.00 | 0.00 | 29 | 1003.5 |
| 20260508234327 | 20 | 235 | 8.0 | 17.7 | 0.00 | 0.00 | 0.00 | 30 | 1003.6 |
| 20260508233826 | 21 | 221 | 11.3 | 27.4 | 0.00 | 0.00 | 0.00 | 29 | 1003.7 |
| 20260508233325 | 20 | 217 | 8.0 | 16.1 | 0.00 | 0.00 | 0.00 | 29 | 1003.6 |
| 20260508232821 | 20 | 250 | 4.8 | 12.9 | 0.00 | 0.00 | 0.00 | 29 | 1003.8 |
| 20260508232317 | 20 | 216 | 4.8 | 11.3 | 0.00 | 0.00 | 0.00 | 30 | 1003.7 |
| 20260508231816 | 20 | 227 | 6.4 | 17.7 | 0.00 | 0.00 | 0.00 | 29 | 1004.0 |
| 20260508231312 | 20 | 257 | 11.3 | 14.5 | 0.00 | 0.00 | 0.00 | 29 | 1003.9 |
| 20260508230809 | 20 | 240 | 4.8 | 11.3 | 0.00 | 0.00 | 0.00 | 30 | 1003.9 |
| 20260508230305 | 20 | 225 | 12.9 | 22.5 | 0.00 | 0.00 | 0.00 | 29 | 1003.9 |
| 20260508225803 | 21 | 163 | 4.8 | 22.5 | 0.00 | 0.00 | 0.00 | 29 | 1003.7 |
| 20260508225259 | 21 | 182 | 14.5 | 24.1 | 0.00 | 0.00 | 0.00 | 28 | 1003.9 |
| 20260508224757 | 21 | 212 | 11.3 | 20.9 | 0.00 | 0.00 | 0.00 | 28 | 1003.9 |
| 20260508224254 | 20 | 165 | 4.8 | 16.1 | 0.00 | 0.00 | 0.00 | 29 | 1003.9 |
| 20260508223752 | 20 | 252 | 1.6 | 12.9 | 0.00 | 0.00 | 0.00 | 30 | 1004.1 |
| 20260508223249 | 21 | 230 | 4.8 | 14.5 | 0.00 | 0.00 | 0.00 | 29 | 1004.1 |
| 20260508222746 | 20 | 217 | 11.3 | 24.1 | 0.00 | 0.00 | 0.00 | 29 | 1004.2 |
| 20260508222244 | 21 | 183 | 8.0 | 16.1 | 0.00 | 0.00 | 0.00 | 28 | 1004.1 |
| 20260508221740 | 21 | 189 | 4.8 | 9.7 | 0.00 | 0.00 | 0.00 | 28 | 1004.2 |
| 20260508221236 | 21 | 213 | 8.0 | 16.1 | 0.00 | 0.00 | 0.00 | 28 | 1004.2 |
| 20260508220732 | 20 | 220 | 1.6 | 3.2 | 0.00 | 0.00 | 0.00 | 30 | 1004.3 |
| 20260508220229 | 20 | 204 | 1.6 | 9.7 | 0.00 | 0.00 | 0.00 | 29 | 1004.4 |
| 20260508215725 | 20 | 246 | 6.4 | 20.9 | 0.00 | 0.00 | 0.00 | 29 | 1004.4 |
| 20260508215222 | 20 | 166 | 8.0 | 20.9 | 0.00 | 0.00 | 0.00 | 29 | 1004.4 |
| 20260508214719 | 21 | 221 | 8.0 | 22.5 | 0.00 | 0.00 | 0.00 | 28 | 1004.4 |
| 20260508214216 | 20 | 233 | 8.0 | 17.7 | 0.00 | 0.00 | 0.00 | 28 | 1004.5 |
| 20260508213713 | 20 | 203 | 17.7 | 22.5 | 0.00 | 0.00 | 0.00 | 28 | 1004.5 |
| 20260508213209 | 20 | 205 | 4.8 | 20.9 | 0.00 | 0.00 | 0.00 | 29 | 1004.8 |
| 20260508212706 | 21 | 231 | 11.3 | 14.5 | 0.00 | 0.00 | 0.00 | 27 | 1004.9 |
| 20260508212202 | 21 | 160 | 14.5 | 16.1 | 0.00 | 0.00 | 0.00 | 27 | 1004.8 |
| 20260508211658 | 21 | 232 | 6.4 | 14.5 | 0.00 | 0.00 | 0.00 | 27 | 1004.7 |
| 20260508211154 | 21 | 191 | 12.9 | 17.7 | 0.00 | 0.00 | 0.00 | 29 | 1004.8 |
| 20260508210651 | 20 | 176 | 11.3 | 16.1 | 0.00 | 0.00 | 0.00 | 28 | 1005.0 |
| 20260508210148 | 20 | 220 | 9.7 | 12.9 | 0.00 | 0.00 | 0.00 | 28 | 1004.8 |
| 20260508205645 | 21 | 193 | 12.9 | 20.9 | 0.00 | 0.00 | 0.00 | 27 | 1005.0 |
| 20260508205142 | 20 | 269 | 4.8 | 20.9 | 0.00 | 0.00 | 0.00 | 28 | 1005.0 |
| 20260508204638 | 21 | 153 | 3.2 | 17.7 | 0.00 | 0.00 | 0.00 | 28 | 1005.4 |
| 20260508204134 | 21 | 223 | 4.8 | 12.9 | 0.00 | 0.00 | 0.00 | 27 | 1005.5 |
| 20260508203631 | 20 | 280 | 11.3 | 16.1 | 0.00 | 0.00 | 0.00 | 27 | 1005.4 |
| 20260508203127 | 20 | 224 | 8.0 | 11.3 | 0.00 | 0.00 | 0.00 | 27 | 1005.4 |
| 20260508202623 | 20 | 239 | 1.6 | 4.8 | 0.00 | 0.00 | 0.00 | 28 | 1005.6 |
| 20260508202120 | 20 | 272 | 3.2 | 16.1 | 0.00 | 0.00 | 0.00 | 28 | 1005.9 |
| 20260508201617 | 20 | 218 | 3.2 | 9.7 | 0.00 | 0.00 | 0.00 | 28 | 1005.6 |
| 20260508201114 | 19 | 209 | 6.4 | 11.3 | 0.00 | 0.00 | 0.00 | 28 | 1006.0 |
| 20260508200611 | 19 | 204 | 4.8 | 11.3 | 0.00 | 0.00 | 0.00 | 28 | 1006.0 |
| 20260508200106 | 19 | 211 | 8.0 | 11.3 | 0.00 | 0.00 | 0.00 | 27 | 1006.3 |
| 20260508195603 | 19 | 227 | 11.3 | 14.5 | 0.00 | 0.00 | 0.00 | 27 | 1006.1 |
| 20260508195059 | 20 | 116 | 3.2 | 14.5 | 0.00 | 0.00 | 0.00 | 28 | 1006.1 |
| 20260508194556 | 20 | 214 | 4.8 | 9.7 | 0.00 | 0.00 | 0.00 | 27 | 1006.1 |
| 20260508194054 | 19 | 200 | 1.6 | 11.3 | 0.00 | 0.00 | 0.00 | 30 | 1006.3 |
| 20260508193550 | 20 | 263 | 8.0 | 11.3 | 0.00 | 0.00 | 0.00 | 28 | 1006.3 |
| 20260508193047 | 19 | 236 | 6.4 | 8.0 | 0.00 | 0.00 | 0.00 | 27 | 1006.5 |
| 20260508192543 | 19 | 200 | 9.7 | 16.1 | 0.00 | 0.00 | 0.00 | 28 | 1006.4 |
| 20260508192041 | 19 | 215 | 3.2 | 12.9 | 0.00 | 0.00 | 0.00 | 27 | 1006.3 |
| 20260508191537 | 19 | 279 | 6.4 | 14.5 | 0.00 | 0.00 | 0.00 | 28 | 1006.7 |
| 20260508191034 | 19 | 195 | 4.8 | 9.7 | 0.00 | 0.00 | 0.00 | 27 | 1006.6 |
| 20260508190531 | 19 | 114 | 1.6 | 4.8 | 0.00 | 0.00 | 0.00 | 28 | 1006.4 |
| 20260508190027 | 19 | 117 | 4.8 | 16.1 | 0.00 | 0.00 | 0.00 | 28 | 1006.4 |
| 20260508185525 | 19 | 182 | 4.8 | 4.8 | 0.00 | 0.00 | 0.00 | 28 | 1006.6 |
| 20260508185023 | 20 | 159 | 9.7 | 16.1 | 0.00 | 0.00 | 0.00 | 27 | 1006.7 |
| 20260508184520 | 19 | 220 | 6.4 | 12.9 | 0.00 | 0.00 | 0.00 | 28 | 1006.8 |
| 20260508184017 | 18 | 215 | 8.0 | 20.9 | 0.00 | 0.00 | 0.00 | 28 | 1006.7 |
| 20260508183513 | 18 | 233 | 11.3 | 22.5 | 0.00 | 0.00 | 0.00 | 28 | 1006.8 |
| 20260508183009 | 19 | 187 | 3.2 | 16.1 | 0.00 | 0.00 | 0.00 | 29 | 1006.9 |
| 20260508182506 | 19 | 141 | 1.6 | 14.5 | 0.00 | 0.00 | 0.00 | 29 | 1007.3 |
| 20260508182001 | 18 | 141 | 6.4 | 12.9 | 0.00 | 0.00 | 0.00 | 29 | 1007.2 |
| 20260508181457 | 19 | 224 | 11.3 | 16.1 | 0.00 | 0.00 | 0.00 | 28 | 1007.1 |
| 20260508180955 | 18 | 242 | 16.1 | 22.5 | 0.00 | 0.00 | 0.00 | 28 | 1007.5 |
| 20260508180452 | 19 | 236 | 9.7 | 11.3 | 0.00 | 0.00 | 0.00 | 27 | 1007.4 |
| 20260508175948 | 18 | 222 | 14.5 | 27.4 | 0.00 | 0.00 | 0.00 | 28 | 1007.6 |
| 20260508175444 | 18 | 211 | 12.9 | 33.8 | 0.00 | 0.00 | 0.00 | 27 | 1007.6 |
| 20260508174942 | 18 | 238 | 12.9 | 24.1 | 0.00 | 0.00 | 0.00 | 29 | 1007.7 |
| 20260508174440 | 18 | 130 | 4.8 | 20.9 | 0.00 | 0.00 | 0.00 | 31 | 1007.8 |
| 20260508173936 | 18 | 268 | 11.3 | 22.5 | 0.00 | 0.00 | 0.00 | 29 | 1008.1 |
| 20260508173434 | 18 | 236 | 14.5 | 17.7 | 0.00 | 0.00 | 0.00 | 28 | 1008.1 |
| 20260508172929 | 18 | 169 | 9.7 | 14.5 | 0.00 | 0.00 | 0.00 | 30 | 1008.1 |
| 20260508172427 | 18 | 244 | 8.0 | 20.9 | 0.00 | 0.00 | 0.00 | 29 | 1008.1 |
| 20260508171923 | 18 | 226 | 6.4 | 9.7 | 0.00 | 0.00 | 0.00 | 30 | 1008.3 |
| 20260508171419 | 18 | 115 | 1.6 | 4.8 | 0.00 | 0.00 | 0.00 | 33 | 1008.3 |
| 20260508170916 | 17 | 109 | 1.6 | 8.0 | 0.00 | 0.00 | 0.00 | 33 | 1008.3 |
| 20260508170414 | 16 | 188 | 9.7 | 12.9 | 0.00 | 0.00 | 0.00 | 33 | 1008.7 |
| 20260508165910 | 16 | 225 | 4.8 | 8.0 | 0.00 | 0.00 | 0.00 | 34 | 1008.8 |
| 20260508165408 | 16 | 215 | 6.4 | 12.9 | 0.00 | 0.00 | 0.00 | 34 | 1008.8 |
| 20260508164903 | 16 | 214 | 0.0 | 16.1 | 0.00 | 0.00 | 0.00 | 35 | 1008.8 |
| 20260508164401 | 16 | 132 | 8.0 | 16.1 | 0.00 | 0.00 | 0.00 | 36 | 1008.9 |
| 20260508163858 | 16 | 217 | 11.3 | 14.5 | 0.00 | 0.00 | 0.00 | 34 | 1008.8 |
| 20260508163356 | 16 | 227 | 6.4 | 9.7 | 0.00 | 0.00 | 0.00 | 36 | 1009.1 |
| 20260508162851 | 16 | 134 | 0.0 | 9.7 | 0.00 | 0.00 | 0.00 | 37 | 1009.1 |
| 20260508162349 | 16 | 241 | 11.3 | 14.5 | 0.00 | 0.00 | 0.00 | 35 | 1009.3 |
| 20260508161846 | 16 | 223 | 8.0 | 11.3 | 0.00 | 0.00 | 0.00 | 35 | 1009.2 |
| 20260508161343 | 15 | 178 | 3.2 | 4.8 | 0.00 | 0.00 | 0.00 | 36 | 1009.2 |
| 20260508160840 | 15 | 199 | 9.7 | 16.1 | 0.00 | 0.00 | 0.00 | 36 | 1009.5 |
| 20260508160339 | 15 | 206 | 8.0 | 20.9 | 0.00 | 0.00 | 0.00 | 36 | 1009.6 |
| 20260508155835 | 15 | 174 | 8.0 | 12.9 | 0.00 | 0.00 | 0.00 | 36 | 1009.5 |
| 20260508155332 | 15 | 223 | 4.8 | 16.1 | 0.00 | 0.00 | 0.00 | 36 | 1009.6 |
| 20260508154828 | 15 | 192 | 8.0 | 16.1 | 0.00 | 0.00 | 0.00 | 36 | 1009.4 |
| 20260508154326 | 15 | 215 | 4.8 | 12.9 | 0.00 | 0.00 | 0.00 | 37 | 1009.5 |
| 20260508153822 | 15 | 181 | 4.8 | 8.0 | 0.00 | 0.00 | 0.00 | 37 | 1009.6 |
| 20260508153321 | 15 | 220 | 6.4 | 11.3 | 0.00 | 0.00 | 0.00 | 37 | 1009.3 |
| 20260508152815 | 14 | 180 | 4.8 | 9.7 | 0.00 | 0.00 | 0.00 | 37 | 1009.5 |
| 20260508152312 | 14 | 178 | 9.7 | 12.9 | 0.00 | 0.00 | 0.00 | 37 | 1009.7 |
| 20260508151808 | 14 | 165 | 6.4 | 12.9 | 0.00 | 0.00 | 0.00 | 38 | 1009.7 |
| 20260508151305 | 14 | 7 | 1.6 | 11.3 | 0.00 | 0.00 | 0.00 | 39 | 1009.8 |
| 20260508150802 | 14 | 222 | 3.2 | 8.0 | 0.00 | 0.00 | 0.00 | 39 | 1010.0 |
| 20260508150259 | 14 | 151 | 3.2 | 4.8 | 0.00 | 0.00 | 0.00 | 39 | 1009.8 |
| 20260508145755 | 14 | 221 | 1.6 | 8.0 | 0.00 | 0.00 | 0.00 | 40 | 1009.9 |
| 20260508145251 | 13 | 166 | 1.6 | 8.0 | 0.00 | 0.00 | 0.00 | 39 | 1010.0 |
| 20260508144748 | 13 | 181 | 4.8 | 8.0 | 0.00 | 0.00 | 0.00 | 40 | 1010.2 |
| 20260508144246 | 13 | 229 | 1.6 | 3.2 | 0.00 | 0.00 | 0.00 | 41 | 1010.1 |
| 20260508143743 | 12 | 196 | 4.8 | 4.8 | 0.00 | 0.00 | 0.00 | 41 | 1009.9 |
| 20260508143240 | 12 | 111 | 1.6 | 3.2 | 0.00 | 0.00 | 0.00 | 43 | 1010.1 |
| 20260508142736 | 12 | 245 | 1.6 | 3.2 | 0.00 | 0.00 | 0.00 | 43 | 1010.1 |
| 20260508142233 | 12 | 220 | 0.0 | 1.6 | 0.00 | 0.00 | 0.00 | 44 | 1009.9 |
| 20260508141730 | 12 | 195 | 0.0 | 1.6 | 0.00 | 0.00 | 0.00 | 43 | 1010.3 |
| 20260508141228 | 12 | 236 | 3.2 | 3.2 | 0.00 | 0.00 | 0.00 | 43 | 1010.0 |
| 20260508140725 | 12 | 203 | 1.6 | 3.2 | 0.00 | 0.00 | 0.00 | 44 | 1010.2 |
| 20260508140222 | 12 | 210 | 1.6 | 4.8 | 0.00 | 0.00 | 0.00 | 43 | 1010.0 |
| 20260508135718 | 12 | 183 | 3.2 | 4.8 | 0.00 | 0.00 | 0.00 | 42 | 1010.2 |
| 20260508135214 | 12 | 207 | 4.8 | 8.0 | 0.00 | 0.00 | 0.00 | 41 | 1010.2 |
| 20260508134709 | 12 | 162 | 3.2 | 9.7 | 0.00 | 0.00 | 0.00 | 41 | 1010.3 |
| 20260508134207 | 12 | 241 | 0.0 | 4.8 | 0.00 | 0.00 | 0.00 | 42 | 1010.2 |
| 20260508133704 | 12 | 174 | 4.8 | 8.0 | 0.00 | 0.00 | 0.00 | 40 | 1010.1 |
| 20260508133201 | 11 | 336 | 0.0 | 1.6 | 0.00 | 0.00 | 0.00 | 42 | 1010.2 |
| 20260508132659 | 11 | 100 | 1.6 | 8.0 | 0.00 | 0.00 | 0.00 | 42 | 1010.4 |
| 20260508132156 | 11 | 75 | 0.0 | 3.2 | 0.00 | 0.00 | 0.00 | 43 | 1010.4 |
| 20260508131651 | 10 | 114 | 1.6 | 4.8 | 0.00 | 0.00 | 0.00 | 43 | 1010.4 |
| 20260508131148 | 10 | 147 | 6.4 | 8.0 | 0.00 | 0.00 | 0.00 | 43 | 1010.4 |
| 20260508130644 | 10 | 152 | 4.8 | 11.3 | 0.00 | 0.00 | 0.00 | 43 | 1010.6 |
| 20260508130142 | 10 | 47 | 0.0 | 1.6 | 0.00 | 0.00 | 0.00 | 44 | 1010.5 |
| 20260508125637 | 10 | 71 | 3.2 | 3.2 | 0.00 | 0.00 | 0.00 | 45 | 1010.4 |
| 20260508125134 | 9 | 139 | 3.2 | 9.7 | 0.00 | 0.00 | 0.00 | 44 | 1010.6 |
| 20260508124632 | 9 | 88 | 4.8 | 9.7 | 0.00 | 0.00 | 0.00 | 43 | 1010.5 |
| 20260508124129 | 8 | 81 | 4.8 | 9.7 | 0.00 | 0.00 | 0.00 | 45 | 1010.6 |
| 20260508123628 | 8 | 89 | 4.8 | 4.8 | 0.00 | 0.00 | 0.00 | 45 | 1010.4 |
| 20260508123125 | 8 | 137 | 4.8 | 8.0 | 0.00 | 0.00 | 0.00 | 46 | 1010.3 |
| 20260508122620 | 8 | 159 | 4.8 | 4.8 | 0.00 | 0.00 | 0.00 | 46 | 1010.3 |
| 20260508122118 | 8 | 67 | 1.6 | 4.8 | 0.00 | 0.00 | 0.00 | 47 | 1010.4 |
| 20260508121616 | 8 | 80 | 1.6 | 8.0 | 0.00 | 0.00 | 0.00 | 47 | 1010.6 |
| 20260508121114 | 7 | 148 | 4.8 | 4.8 | 0.00 | 0.00 | 0.00 | 48 | 1010.4 |
| 20260508120611 | 7 | 83 | 1.6 | 8.0 | 0.00 | 0.00 | 0.00 | 48 | 1010.4 |
| 20260508120109 | 7 | 156 | 1.6 | 3.2 | 0.00 | 0.00 | 0.00 | 49 | 1010.3 |
| 20260508115607 | 7 | 91 | 0.0 | 3.2 | 0.00 | 0.00 | 0.00 | 50 | 1010.4 |
| 20260508115103 | 6 | 99 | 1.6 | 1.6 | 0.00 | 0.00 | 0.00 | 50 | 1010.5 |
| 20260508114600 | 6 | 106 | 0.0 | 1.6 | 0.00 | 0.00 | 0.00 | 50 | 1010.4 |
| 20260508114056 | 6 | 86 | 1.6 | 3.2 | 0.00 | 0.00 | 0.00 | 50 | 1010.5 |
| 20260508113554 | 6 | 88 | 1.6 | 3.2 | 0.00 | 0.00 | 0.00 | 51 | 1010.2 |
| 20260508113052 | 6 | 92 | 0.0 | 1.6 | 0.00 | 0.00 | 0.00 | 51 | 1010.5 |
| 20260508112548 | 6 | 111 | 1.6 | 1.6 | 0.00 | 0.00 | 0.00 | 51 | 1010.3 |
| 20260508112045 | 6 | 107 | 0.0 | 1.6 | 0.00 | 0.00 | 0.00 | 51 | 1010.4 |
| 20260508111542 | 6 | 127 | 3.2 | 3.2 | 0.00 | 0.00 | 0.00 | 51 | 1010.5 |
| 20260508111039 | 6 | 115 | 0.0 | 0.0 | 0.00 | 0.00 | 0.00 | 51 | 1010.6 |
| 20260508110537 | 6 | 124 | 0.0 | 1.6 | 0.00 | 0.00 | 0.00 | 51 | 1010.2 |
| 20260508110032 | 5 | 127 | 0.0 | 4.8 | 0.00 | 0.00 | 0.00 | 51 | 1010.3 |
| 20260508105527 | 5 | 130 | 0.0 | 1.6 | 0.00 | 0.00 | 0.00 | 51 | 1010.2 |
| 20260508105025 | 5 | 109 | 1.6 | 3.2 | 0.00 | 0.00 | 0.00 | 51 | 1010.4 |
| 20260508104523 | 5 | 130 | 0.0 | 0.0 | 0.00 | 0.00 | 0.00 | 51 | 1010.3 |
| 20260508104019 | 6 | 102 | 0.0 | 1.6 | 0.00 | 0.00 | 0.00 | 51 | 1010.4 |
| 20260508103516 | 6 | 103 | 0.0 | 1.6 | 0.00 | 0.00 | 0.00 | 50 | 1010.5 |
| 20260508103013 | 6 | 124 | 0.0 | 4.8 | 0.00 | 0.00 | 0.00 | 50 | 1010.4 |
| 20260508102511 | 6 | 117 | 3.2 | 4.8 | 0.00 | 0.00 | 0.00 | 50 | 1010.3 |
| 20260508102009 | 6 | 114 | 0.0 | 3.2 | 0.00 | 0.00 | 0.00 | 49 | 1010.4 |
| 20260508101506 | 6 | 126 | 3.2 | 3.2 | 0.00 | 0.00 | 0.00 | 49 | 1010.4 |
| 20260508101003 | 6 | 137 | 1.6 | 3.2 | 0.00 | 0.00 | 0.00 | 49 | 1010.5 |
| 20260508100501 | 6 | 144 | 1.6 | 1.6 | 0.00 | 0.00 | 0.00 | 49 | 1010.5 |
| 20260508095957 | 6 | 141 | 0.0 | 3.2 | 0.00 | 0.00 | 0.00 | 49 | 1010.6 |
| 20260508095455 | 6 | 155 | 1.6 | 3.2 | 0.00 | 0.00 | 0.00 | 49 | 1010.4 |
| 20260508094951 | 6 | 137 | 1.6 | 4.8 | 0.00 | 0.00 | 0.00 | 48 | 1010.5 |
| 20260508094448 | 6 | 112 | 6.4 | 11.3 | 0.00 | 0.00 | 0.00 | 47 | 1010.6 |
| 20260508093945 | 6 | 111 | 3.2 | 4.8 | 0.00 | 0.00 | 0.00 | 48 | 1010.5 |
| 20260508093442 | 6 | 138 | 1.6 | 4.8 | 0.00 | 0.00 | 0.00 | 47 | 1010.5 |
| 20260508092940 | 6 | 115 | 3.2 | 8.0 | 0.00 | 0.00 | 0.00 | 47 | 1010.5 |
| 20260508092437 | 6 | 155 | 1.6 | 3.2 | 0.00 | 0.00 | 0.00 | 47 | 1010.6 |
| 20260508091936 | 6 | 122 | 4.8 | 8.0 | 0.00 | 0.00 | 0.00 | 47 | 1010.5 |
| 20260508091432 | 7 | 112 | 1.6 | 11.3 | 0.00 | 0.00 | 0.00 | 46 | 1010.7 |
| 20260508090929 | 7 | 129 | 1.6 | 4.8 | 0.00 | 0.00 | 0.00 | 47 | 1010.6 |
| 20260508090428 | 6 | 114 | 1.6 | 8.0 | 0.00 | 0.00 | 0.00 | 47 | 1010.7 |
| 20260508085923 | 7 | 149 | 1.6 | 8.0 | 0.00 | 0.00 | 0.00 | 46 | 1010.5 |
| 20260508085420 | 7 | 93 | 3.2 | 4.8 | 0.00 | 0.00 | 0.00 | 46 | 1010.7 |
| 20260508084917 | 7 | 74 | 3.2 | 8.0 | 0.00 | 0.00 | 0.00 | 46 | 1010.6 |
| 20260508084414 | 7 | 108 | 0.0 | 4.8 | 0.00 | 0.00 | 0.00 | 47 | 1010.5 |
| 20260508083912 | 7 | 114 | 1.6 | 3.2 | 0.00 | 0.00 | 0.00 | 46 | 1010.6 |
| 20260508083409 | 7 | 126 | 4.8 | 4.8 | 0.00 | 0.00 | 0.00 | 46 | 1010.6 |
| 20260508082908 | 7 | 88 | 4.8 | 11.3 | 0.00 | 0.00 | 0.00 | 46 | 1010.8 |
| 20260508082406 | 7 | 136 | 3.2 | 4.8 | 0.00 | 0.00 | 0.00 | 46 | 1010.8 |
| 20260508081904 | 7 | 129 | 3.2 | 9.7 | 0.00 | 0.00 | 0.00 | 46 | 1010.7 |
| 20260508081401 | 7 | 128 | 3.2 | 3.2 | 0.00 | 0.00 | 0.00 | 46 | 1010.8 |
| 20260508080857 | 7 | 106 | 3.2 | 8.0 | 0.00 | 0.00 | 0.00 | 46 | 1010.8 |
| 20260508080355 | 7 | 104 | 1.6 | 8.0 | 0.00 | 0.00 | 0.00 | 46 | 1010.8 |
| 20260508075851 | 7 | 153 | 3.2 | 9.7 | 0.00 | 0.00 | 0.00 | 46 | 1010.8 |
| 20260508075349 | 7 | 111 | 6.4 | 11.3 | 0.00 | 0.00 | 0.00 | 46 | 1011.0 |
| 20260508074846 | 7 | 131 | 4.8 | 8.0 | 0.00 | 0.00 | 0.00 | 45 | 1011.1 |
| 20260508074343 | 7 | 119 | 3.2 | 9.7 | 0.00 | 0.00 | 0.00 | 46 | 1010.9 |
| 20260508073840 | 7 | 99 | 1.6 | 11.3 | 0.00 | 0.00 | 0.00 | 46 | 1011.0 |
| 20260508073338 | 7 | 144 | 4.8 | 4.8 | 0.00 | 0.00 | 0.00 | 46 | 1010.9 |
| 20260508072835 | 7 | 133 | 1.6 | 8.0 | 0.00 | 0.00 | 0.00 | 46 | 1010.8 |
| 20260508072331 | 7 | 80 | 1.6 | 9.7 | 0.00 | 0.00 | 0.00 | 46 | 1011.1 |
| 20260508071828 | 7 | 131 | 3.2 | 9.7 | 0.00 | 0.00 | 0.00 | 46 | 1011.1 |
| 20260508071327 | 7 | 113 | 4.8 | 9.7 | 0.00 | 0.00 | 0.00 | 46 | 1011.2 |
| 20260508070824 | 7 | 122 | 1.6 | 3.2 | 0.00 | 0.00 | 0.00 | 47 | 1011.1 |
| 20260508070322 | 7 | 102 | 0.0 | 4.8 | 0.00 | 0.00 | 0.00 | 47 | 1011.2 |
| 20260508065819 | 7 | 106 | 0.0 | 3.2 | 0.00 | 0.00 | 0.00 | 46 | 1011.1 |
| 20260508065317 | 7 | 112 | 1.6 | 3.2 | 0.00 | 0.00 | 0.00 | 46 | 1011.1 |
| 20260508064815 | 7 | 90 | 1.6 | 8.0 | 0.00 | 0.00 | 0.00 | 47 | 1011.2 |
| 20260508064312 | 7 | 115 | 3.2 | 3.2 | 0.00 | 0.00 | 0.00 | 46 | 1011.1 |
| 20260508063810 | 7 | 136 | 3.2 | 3.2 | 0.00 | 0.00 | 0.00 | 46 | 1011.3 |
| 20260508063308 | 7 | 127 | 1.6 | 4.8 | 0.00 | 0.00 | 0.00 | 46 | 1011.2 |
| 20260508062804 | 7 | 100 | 0.0 | 4.8 | 0.00 | 0.00 | 0.00 | 47 | 1011.4 |
| 20260508062306 | 7 | 129 | 1.6 | 3.2 | 0.00 | 0.00 | 0.00 | 47 | 1011.4 |
| 20260508061759 | 7 | 108 | 0.0 | 1.6 | 0.00 | 0.00 | 0.00 | 48 | 1011.5 |
| 20260508061256 | 7 | 215 | 0.0 | 1.6 | 0.00 | 0.00 | 0.00 | 47 | 1011.2 |
| 20260508060752 | 7 | 187 | 0.0 | 1.6 | 0.00 | 0.00 | 0.00 | 48 | 1011.5 |
| 20260508060251 | 7 | 152 | 0.0 | 1.6 | 0.00 | 0.00 | 0.00 | 49 | 1011.5 |
| 20260508055745 | 7 | 111 | 1.6 | 3.2 | 0.00 | 0.00 | 0.00 | 49 | 1011.5 |
| 20260508055243 | 7 | 188 | 0.0 | 0.0 | 0.00 | 0.00 | 0.00 | 50 | 1011.5 |
| 20260508054739 | 7 | 135 | 0.0 | 1.6 | 0.00 | 0.00 | 0.00 | 50 | 1011.5 |
| 20260508054237 | 7 | 154 | 0.0 | 1.6 | 0.00 | 0.00 | 0.00 | 50 | 1011.4 |
| 20260508053734 | 7 | 140 | 1.6 | 1.6 | 0.00 | 0.00 | 0.00 | 50 | 1011.5 |
| 20260508053231 | 7 | 175 | 0.0 | 1.6 | 0.00 | 0.00 | 0.00 | 50 | 1011.6 |
| 20260508052728 | 7 | 186 | 0.0 | 0.0 | 0.00 | 0.00 | 0.00 | 50 | 1011.4 |
| 20260508052225 | 7 | 113 | 0.0 | 0.0 | 0.00 | 0.00 | 0.00 | 49 | 1011.6 |
| 20260508051722 | 7 | 97 | 1.6 | 3.2 | 0.00 | 0.00 | 0.00 | 47 | 1011.5 |
| 20260508051217 | 7 | 134 | 0.0 | 1.6 | 0.00 | 0.00 | 0.00 | 49 | 1011.7 |
| 20260508050714 | 8 | 188 | 0.0 | 0.0 | 0.00 | 0.00 | 0.00 | 46 | 1011.8 |
| 20260508050211 | 7 | 180 | 0.0 | 1.6 | 0.00 | 0.00 | 0.00 | 47 | 1011.7 |
| 20260508045706 | 7 | 229 | 0.0 | 0.0 | 0.00 | 0.00 | 0.00 | 47 | 1011.5 |
| 20260508045205 | 8 | 183 | 0.0 | 1.6 | 0.00 | 0.00 | 0.00 | 46 | 1011.8 |
| 20260508044702 | 8 | 144 | 0.0 | 1.6 | 0.00 | 0.00 | 0.00 | 45 | 1011.6 |
| 20260508044158 | 8 | 194 | 0.0 | 1.6 | 0.00 | 0.00 | 0.00 | 45 | 1011.7 |
| 20260508043654 | 8 | 179 | 0.0 | 1.6 | 0.00 | 0.00 | 0.00 | 44 | 1011.7 |
| 20260508043152 | 8 | 202 | 0.0 | 1.6 | 0.00 | 0.00 | 0.00 | 44 | 1011.8 |
| 20260508042648 | 8 | 195 | 0.0 | 0.0 | 0.00 | 0.00 | 0.00 | 44 | 1011.8 |
| 20260508042146 | 8 | 217 | 0.0 | 1.6 | 0.00 | 0.00 | 0.00 | 44 | 1011.8 |
| 20260508041642 | 8 | 196 | 0.0 | 1.6 | 0.00 | 0.00 | 0.00 | 43 | 1012.2 |
| 20260508041139 | 8 | 208 | 0.0 | 1.6 | 0.00 | 0.00 | 0.00 | 44 | 1012.0 |
| 20260508040635 | 8 | 166 | 1.6 | 1.6 | 0.00 | 0.00 | 0.00 | 45 | 1012.0 |
| 20260508040133 | 8 | 207 | 0.0 | 0.0 | 0.00 | 0.00 | 0.00 | 45 | 1011.8 |
| 20260508035630 | 8 | 217 | 0.0 | 0.0 | 0.00 | 0.00 | 0.00 | 45 | 1012.1 |
| 20260508035127 | 8 | 192 | 0.0 | 1.6 | 0.00 | 0.00 | 0.00 | 44 | 1012.1 |
| 20260508034624 | 8 | 165 | 1.6 | 1.6 | 0.00 | 0.00 | 0.00 | 45 | 1012.4 |
| 20260508034121 | 8 | 249 | 0.0 | 0.0 | 0.00 | 0.00 | 0.00 | 44 | 1012.1 |
| 20260508033618 | 8 | 260 | 0.0 | 0.0 | 0.00 | 0.00 | 0.00 | 45 | 1012.3 |
| 20260508033117 | 8 | 221 | 0.0 | 0.0 | 0.00 | 0.00 | 0.00 | 45 | 1012.2 |
| 20260508032613 | 8 | 251 | 0.0 | 0.0 | 0.00 | 0.00 | 0.00 | 44 | 1012.1 |
| 20260508032110 | 8 | 271 | 0.0 | 0.0 | 0.00 | 0.00 | 0.00 | 44 | 1012.4 |
| 20260508031608 | 8 | 254 | 0.0 | 0.0 | 0.00 | 0.00 | 0.00 | 44 | 1012.4 |
| 20260508031103 | 8 | 279 | 0.0 | 0.0 | 0.00 | 0.00 | 0.00 | 44 | 1012.2 |
| 20260508030600 | 8 | 279 | 0.0 | 1.6 | 0.00 | 0.00 | 0.00 | 43 | 1012.1 |
| 20260508030058 | 8 | 237 | 0.0 | 0.0 | 0.00 | 0.00 | 0.00 | 43 | 1012.4 |
| 20260508025554 | 8 | 237 | 0.0 | 0.0 | 0.00 | 0.00 | 0.00 | 43 | 1012.3 |
| 20260508025051 | 8 | 237 | 0.0 | 0.0 | 0.00 | 0.00 | 0.00 | 43 | 1012.2 |
| 20260508024547 | 8 | 214 | 0.0 | 0.0 | 0.00 | 0.00 | 0.00 | 42 | 1012.3 |
| 20260508024044 | 9 | 214 | 0.0 | 0.0 | 0.00 | 0.00 | 0.00 | 43 | 1012.1 |
| 20260508023540 | 8 | 265 | 0.0 | 0.0 | 0.00 | 0.00 | 0.00 | 42 | 1012.1 |
| 20260508023038 | 9 | 265 | 0.0 | 0.0 | 0.00 | 0.00 | 0.00 | 42 | 1012.2 |
| 20260508022534 | 9 | 261 | 0.0 | 0.0 | 0.00 | 0.00 | 0.00 | 43 | 1012.1 |
| 20260508022031 | 9 | 261 | 0.0 | 0.0 | 0.00 | 0.00 | 0.00 | 42 | 1012.0 |
| 20260508021527 | 9 | 261 | 0.0 | 0.0 | 0.00 | 0.00 | 0.00 | 41 | 1012.0 |
| 20260508021022 | 9 | 237 | 0.0 | 0.0 | 0.00 | 0.00 | 0.00 | 42 | 1012.1 |
| 20260508020521 | 9 | 237 | 0.0 | 0.0 | 0.00 | 0.00 | 0.00 | 43 | 1011.8 |
| 20260508020018 | 9 | 220 | 0.0 | 0.0 | 0.00 | 0.00 | 0.00 | 44 | 1011.6 |
| 20260508015515 | 9 | 208 | 0.0 | 0.0 | 0.00 | 0.00 | 0.00 | 44 | 1011.7 |
| 20260508015012 | 10 | 239 | 0.0 | 0.0 | 0.00 | 0.00 | 0.00 | 44 | 1011.8 |
| 20260508014508 | 10 | 239 | 0.0 | 0.0 | 0.00 | 0.00 | 0.00 | 42 | 1011.8 |
| 20260508014005 | 10 | 265 | 0.0 | 1.6 | 0.00 | 0.00 | 0.00 | 43 | 1011.7 |
| 20260508013501 | 10 | 217 | 0.0 | 0.0 | 0.00 | 0.00 | 0.00 | 46 | 1011.7 |
| 20260508012958 | 11 | 155 | 0.0 | 0.0 | 0.00 | 0.00 | 0.00 | 40 | 1011.6 |
| 20260508012455 | 11 | 178 | 0.0 | 0.0 | 0.00 | 0.00 | 0.00 | 37 | 1011.7 |
| 20260508011953 | 11 | 194 | 0.0 | 4.8 | 0.00 | 0.00 | 0.00 | 36 | 1011.5 |
| 20260508011450 | 12 | 303 | 0.0 | 1.6 | 0.00 | 0.00 | 0.00 | 37 | 1011.6 |
| 20260508010948 | 12 | 197 | 0.0 | 1.6 | 0.00 | 0.00 | 0.00 | 36 | 1011.5 |
| 20260508010445 | 12 | 176 | 4.8 | 4.8 | 0.00 | 0.00 | 0.00 | 34 | 1011.4 |